Location: Gniazdowice
(50.2124°N, 20.2673°E)
Time: 22:47:16
(UTC+00:00)

Meteor 1-28 Rocket - Pass Details

Date: 09 August 2024
Orbit: 468 x 483 km, 97.5° (Epoch: 08 September)

Event Time Altitude Azimuth Distance (km) Brightness Sun altitude
Exits shadow 00:01:25 - 112° (ESE) 2,054 6.2 -21.9°
Reaches altitude 10° 00:02:40 10° 99° (E) 1,682 5.9 -21.8°
Maximum altitude 00:04:53 16° 62° (ENE) 1,366 5.9 -21.7°
Drops below altitude 10° 00:07:05 10° 24° (NNE) 1,685 7.0 -21.6°
Sets 00:09:47 0° 2° (N) 2,567 8.0 -21.4°
